| time (UTC) | temp F | wind direction | speed MPH | gust MPH | rain 1hr in | rain 24hr in | rain mn in | humidity % | barometer mb |
| 20260901222013 | 95 | 97 | 0.0 | 0.0 | 0.00 | 0.00 | 0.00 | 42 | 1012.1 |
| 20260901221830 | 95 | 89 | 0.0 | 0.0 | 0.00 | 0.00 | 0.00 | 42 | 1015.3 |
| 20260901221507 | 94 | 104 | 0.0 | 0.0 | 0.00 | 0.00 | 0.00 | 43 | 1012.2 |
| 20260901221329 | 95 | 73 | 0.0 | 0.0 | 0.00 | 0.00 | 0.00 | 43 | 1015.3 |
| 20260901221007 | 94 | 79 | 0.0 | 0.0 | 0.00 | 0.00 | 0.00 | 42 | 1012.3 |
| 20260901220826 | 95 | 112 | 0.0 | 0.0 | 0.00 | 0.00 | 0.00 | 42 | 1015.3 |
| 20260901220559 | 95 | 46 | 0.0 | 0.0 | 0.00 | 0.00 | 0.00 | 42 | 1012.3 |
| 20260901220324 | 95 | 86 | 0.0 | 0.0 | 0.00 | 0.00 | 0.00 | 42 | 1015.4 |
| 20260901220112 | 95 | 83 | 0.0 | 0.0 | 0.00 | 0.00 | 0.00 | 42 | 1012.4 |
| 20260901215823 | 95 | 102 | 0.0 | 0.0 | 0.00 | 0.00 | 0.00 | 43 | 1015.4 |
| 20260901215541 | 95 | 60 | 0.0 | 0.0 | 0.00 | 0.00 | 0.00 | 42 | 1012.3 |
| 20260901215320 | 95 | 14 | 0.0 | 0.0 | 0.00 | 0.00 | 0.00 | 42 | 1015.3 |
| 20260901215033 | 95 | 37 | 0.0 | 0.0 | 0.00 | 0.00 | 0.00 | 42 | 1012.4 |
| 20260901214839 | 96 | 75 | 0.0 | 0.0 | 0.00 | 0.00 | 0.00 | 42 | 1015.4 |
| 20260901214519 | 95 | 45 | 0.0 | 0.0 | 0.00 | 0.00 | 0.00 | 42 | 1012.4 |
| 20260901214329 | 96 | 60 | 0.0 | 0.0 | 0.00 | 0.00 | 0.00 | 42 | 1015.4 |
| 20260901214001 | 95 | 64 | 0.0 | 0.0 | 0.00 | 0.00 | 0.00 | 42 | 1012.5 |
| 20260901213825 | 96 | 63 | 0.0 | 0.0 | 0.00 | 0.00 | 0.00 | 41 | 1015.4 |
| 20260901213555 | 95 | 101 | 0.0 | 0.0 | 0.00 | 0.00 | 0.00 | 42 | 1012.5 |
| 20260901213322 | 96 | 76 | 0.0 | 0.0 | 0.00 | 0.00 | 0.00 | 42 | 1015.6 |
| 20260901213108 | 95 | 66 | 0.0 | 0.0 | 0.00 | 0.00 | 0.00 | 42 | 1012.4 |
| 20260901212840 | 95 | 95 | 0.0 | 0.0 | 0.00 | 0.00 | 0.00 | 42 | 1015.6 |
| 20260901212531 | 95 | 91 | 0.0 | 0.0 | 0.00 | 0.00 | 0.00 | 42 | 1012.6 |
| 20260901212330 | 95 | 130 | 0.0 | 0.0 | 0.00 | 0.00 | 0.00 | 42 | 1015.6 |
| 20260901212014 | 95 | 14 | 0.0 | 0.0 | 0.00 | 0.00 | 0.00 | 42 | 1012.6 |
| 20260901211829 | 95 | 108 | 0.0 | 0.0 | 0.00 | 0.00 | 0.00 | 42 | 1015.7 |
| 20260901211506 | 95 | 47 | 0.0 | 0.0 | 0.00 | 0.00 | 0.00 | 41 | 1012.7 |
| 20260901211326 | 96 | 52 | 0.0 | 0.0 | 0.00 | 0.00 | 0.00 | 42 | 1015.7 |
| 20260901211058 | 95 | 51 | 0.0 | 0.0 | 0.00 | 0.00 | 0.00 | 42 | 1012.8 |
| 20260901210843 | 96 | 48 | 0.0 | 0.0 | 0.00 | 0.00 | 0.00 | 42 | 1015.8 |
| 20260901210527 | 95 | 60 | 0.0 | 0.0 | 0.00 | 0.00 | 0.00 | 42 | 1012.9 |
| 20260901210319 | 95 | 116 | 0.0 | 0.0 | 0.00 | 0.00 | 0.00 | 42 | 1016.0 |
| 20260901210020 | 95 | 73 | 0.0 | 0.0 | 0.00 | 0.00 | 0.00 | 43 | 1013.0 |
| 20260901205816 | 95 | 102 | 0.0 | 0.0 | 0.00 | 0.00 | 0.00 | 43 | 1016.0 |
| 20260901205505 | 95 | 151 | 0.0 | 0.0 | 0.00 | 0.00 | 0.00 | 42 | 1013.0 |
| 20260901205400 | 95 | 148 | 0.0 | 0.0 | 0.00 | 0.00 | 0.00 | 42 | 1016.1 |
| 20260901205035 | 95 | 147 | 0.0 | 0.0 | 0.00 | 0.00 | 0.00 | 42 | 1013.1 |
| 20260901204830 | 95 | 156 | 0.0 | 0.0 | 0.00 | 0.00 | 0.00 | 42 | 1016.3 |
| 20260901204534 | 94 | 177 | 0.0 | 0.0 | 0.00 | 0.00 | 0.00 | 42 | 1013.2 |
| 20260901204327 | 95 | 197 | 0.0 | 0.0 | 0.00 | 0.00 | 0.00 | 42 | 1016.3 |
| 20260901204007 | 94 | 231 | 0.0 | 0.0 | 0.00 | 0.00 | 0.00 | 42 | 1013.2 |
| 20260901203824 | 94 | 231 | 0.0 | 0.0 | 0.00 | 0.00 | 0.00 | 43 | 1016.3 |
| 20260901203603 | 94 | 145 | 0.0 | 0.0 | 0.00 | 0.00 | 0.00 | 42 | 1013.3 |
| 20260901203342 | 94 | 142 | 0.0 | 0.0 | 0.00 | 0.00 | 0.00 | 43 | 1016.4 |
| 20260901203048 | 94 | 81 | 0.0 | 0.0 | 0.00 | 0.00 | 0.00 | 43 | 1013.3 |
| 20260901202819 | 94 | 128 | 0.0 | 0.0 | 0.00 | 0.00 | 0.00 | 44 | 1016.4 |
| 20260901202521 | 94 | 145 | 0.0 | 0.0 | 0.00 | 0.00 | 0.00 | 43 | 1013.4 |
| 20260901202337 | 94 | 68 | 0.0 | 0.0 | 0.00 | 0.00 | 0.00 | 44 | 1016.5 |
| 20260901202049 | 94 | 103 | 0.0 | 0.0 | 0.00 | 0.00 | 0.00 | 43 | 1013.5 |
| 20260901201831 | 95 | 137 | 0.0 | 0.0 | 0.00 | 0.00 | 0.00 | 43 | 1016.5 |
| 20260901201507 | 94 | 123 | 0.0 | 0.0 | 0.00 | 0.00 | 0.00 | 43 | 1013.5 |
| 20260901201344 | 95 | 129 | 0.0 | 0.0 | 0.00 | 0.00 | 0.00 | 44 | 1016.6 |
| 20260901201040 | 94 | 46 | 0.0 | 0.0 | 0.00 | 0.00 | 0.00 | 44 | 1013.5 |
| 20260901200820 | 95 | 82 | 0.0 | 0.0 | 0.00 | 0.00 | 0.00 | 43 | 1016.5 |
| 20260901200535 | 94 | 26 | 0.0 | 0.0 | 0.00 | 0.00 | 0.00 | 43 | 1013.5 |
| 20260901200318 | 94 | 157 | 0.0 | 0.0 | 0.00 | 0.00 | 0.00 | 43 | 1016.7 |
| 20260901200019 | 94 | 110 | 0.0 | 0.0 | 0.00 | 0.00 | 0.00 | 44 | 1013.5 |
| 20260901195814 | 94 | 113 | 0.0 | 0.0 | 0.00 | 0.00 | 0.00 | 44 | 1016.7 |
| 20260901195502 | 93 | 148 | 0.0 | 0.0 | 0.00 | 0.00 | 0.00 | 44 | 1013.7 |
| 20260901195331 | 94 | 145 | 0.0 | 0.0 | 0.00 | 0.00 | 0.00 | 44 | 1016.8 |
| 20260901195056 | 93 | 127 | 0.0 | 0.0 | 0.00 | 0.00 | 0.00 | 44 | 1013.9 |
| 20260901194829 | 94 | 162 | 0.0 | 0.0 | 0.00 | 0.00 | 0.00 | 44 | 1016.9 |
| 20260901194551 | 93 | 83 | 0.0 | 0.0 | 0.00 | 0.00 | 0.00 | 44 | 1013.9 |
| 20260901194328 | 94 | 118 | 0.0 | 0.0 | 0.00 | 0.00 | 0.00 | 45 | 1016.9 |
| 20260901194039 | 93 | 152 | 0.0 | 0.0 | 0.00 | 0.00 | 0.00 | 45 | 1014.0 |
| 20260901193824 | 94 | 170 | 0.0 | 0.0 | 0.00 | 0.00 | 0.00 | 45 | 1017.0 |
| 20260901193530 | 93 | 158 | 0.0 | 0.0 | 0.00 | 0.00 | 0.00 | 45 | 1014.0 |
| 20260901193321 | 94 | 137 | 0.0 | 0.0 | 0.00 | 0.00 | 0.00 | 46 | 1017.0 |
| 20260901193022 | 93 | 70 | 0.0 | 0.0 | 0.00 | 0.00 | 0.00 | 46 | 1014.0 |
| 20260901192839 | 94 | 88 | 0.0 | 0.0 | 0.00 | 0.00 | 0.00 | 46 | 1017.0 |
| 20260901192513 | 93 | 129 | 0.0 | 0.0 | 0.00 | 0.00 | 0.00 | 46 | 1014.1 |
| 20260901192330 | 93 | 123 | 0.0 | 0.0 | 0.00 | 0.00 | 0.00 | 46 | 1017.2 |
| 20260901192102 | 93 | 160 | 0.0 | 0.0 | 0.00 | 0.00 | 0.00 | 46 | 1014.2 |
| 20260901191829 | 94 | 118 | 0.0 | 0.0 | 0.00 | 0.00 | 0.00 | 46 | 1017.3 |
| 20260901191551 | 93 | 106 | 0.0 | 0.0 | 0.00 | 0.00 | 0.00 | 46 | 1014.2 |
| 20260901191326 | 94 | 128 | 0.0 | 0.0 | 0.00 | 0.00 | 0.00 | 46 | 1017.2 |
| 20260901191052 | 93 | 54 | 0.0 | 0.0 | 0.00 | 0.00 | 0.00 | 46 | 1014.2 |
| 20260901190825 | 93 | 52 | 0.0 | 0.0 | 0.00 | 0.00 | 0.00 | 46 | 1017.3 |
| 20260901190546 | 93 | 83 | 0.0 | 0.0 | 0.00 | 0.00 | 0.00 | 46 | 1014.3 |
| 20260901190323 | 93 | 107 | 0.0 | 0.0 | 0.00 | 0.00 | 0.00 | 46 | 1017.3 |
| 20260901190039 | 93 | 122 | 0.0 | 0.0 | 0.00 | 0.00 | 0.00 | 46 | 1014.3 |
| 20260901185839 | 93 | 46 | 0.0 | 0.0 | 0.00 | 0.00 | 0.00 | 46 | 1017.3 |
| 20260901185527 | 93 | 103 | 0.0 | 0.0 | 0.00 | 0.00 | 0.00 | 46 | 1014.4 |
| 20260901185330 | 93 | 100 | 0.0 | 0.0 | 0.00 | 0.00 | 0.00 | 46 | 1017.4 |
| 20260901185015 | 92 | 92 | 0.0 | 0.0 | 0.00 | 0.00 | 0.00 | 47 | 1014.5 |
| 20260901184847 | 93 | 104 | 0.0 | 0.0 | 0.00 | 0.00 | 0.00 | 46 | 1017.6 |
| 20260901184549 | 92 | 149 | 0.0 | 0.0 | 0.00 | 0.00 | 0.00 | 48 | 1014.6 |
| 20260901184343 | 92 | 52 | 0.0 | 0.0 | 0.00 | 0.00 | 0.00 | 47 | 1017.6 |
| 20260901184009 | 92 | 35 | 0.0 | 0.0 | 0.00 | 0.00 | 0.00 | 48 | 1014.7 |
| 20260901183843 | 93 | 83 | 0.0 | 0.0 | 0.00 | 0.00 | 0.00 | 47 | 1017.8 |
| 20260901183543 | 92 | 68 | 0.0 | 0.0 | 0.00 | 0.00 | 0.00 | 47 | 1014.8 |
| 20260901183321 | 93 | 51 | 0.0 | 0.0 | 0.00 | 0.00 | 0.00 | 47 | 1017.7 |
| 20260901183045 | 93 | 42 | 0.0 | 0.0 | 0.00 | 0.00 | 0.00 | 48 | 1014.8 |
| 20260901182818 | 93 | 84 | 0.0 | 0.0 | 0.00 | 0.00 | 0.00 | 48 | 1017.8 |
| 20260901182527 | 92 | 359 | 0.0 | 0.0 | 0.00 | 0.00 | 0.00 | 48 | 1014.9 |
| 20260901182318 | 92 | 101 | 0.0 | 0.0 | 0.00 | 0.00 | 0.00 | 48 | 1018.1 |
| 20260901182021 | 92 | 85 | 0.0 | 0.0 | 0.00 | 0.00 | 0.00 | 48 | 1015.1 |
| 20260901181815 | 92 | 100 | 0.0 | 0.0 | 0.00 | 0.00 | 0.00 | 49 | 1018.2 |
| 20260901181521 | 91 | 119 | 0.0 | 0.0 | 0.00 | 0.00 | 0.00 | 48 | 1015.2 |
| 20260901181353 | 92 | 119 | 0.0 | 0.0 | 0.00 | 0.00 | 0.00 | 48 | 1018.2 |
| 20260901181042 | 92 | 177 | 0.0 | 0.0 | 0.00 | 0.00 | 0.00 | 48 | 1015.3 |
| 20260901180830 | 92 | 110 | 0.0 | 0.0 | 0.00 | 0.00 | 0.00 | 48 | 1018.4 |
| 20260901180501 | 91 | 181 | 0.0 | 0.0 | 0.00 | 0.00 | 0.00 | 48 | 1015.4 |
| 20260901180328 | 92 | 156 | 0.0 | 0.0 | 0.00 | 0.00 | 0.00 | 48 | 1018.5 |
| 20260901180053 | 91 | 197 | 0.0 | 0.0 | 0.00 | 0.00 | 0.00 | 49 | 1015.5 |
| 20260901175825 | 92 | 151 | 0.0 | 0.0 | 0.00 | 0.00 | 0.00 | 48 | 1018.5 |
| 20260901175545 | 91 | 166 | 0.0 | 0.0 | 0.00 | 0.00 | 0.00 | 48 | 1015.6 |
| 20260901175345 | 92 | 53 | 0.0 | 0.0 | 0.00 | 0.00 | 0.00 | 48 | 1018.7 |
| 20260901175019 | 91 | 73 | 0.0 | 0.0 | 0.00 | 0.00 | 0.00 | 49 | 1015.6 |
| 20260901174820 | 92 | 145 | 0.0 | 0.0 | 0.00 | 0.00 | 0.00 | 49 | 1018.7 |
| 20260901174505 | 91 | 113 | 0.0 | 0.0 | 0.00 | 0.00 | 0.00 | 49 | 1015.5 |
| 20260901174319 | 92 | 85 | 0.0 | 0.0 | 0.00 | 0.00 | 0.00 | 49 | 1018.6 |
| 20260901174100 | 91 | 182 | 0.0 | 0.0 | 0.00 | 0.00 | 0.00 | 49 | 1015.7 |
| 20260901173838 | 92 | 140 | 0.0 | 0.0 | 0.00 | 0.00 | 0.00 | 49 | 1018.8 |
| 20260901173533 | 91 | 66 | 0.0 | 0.0 | 0.00 | 0.00 | 0.00 | 50 | 1015.7 |
| 20260901173315 | 91 | 106 | 0.0 | 0.0 | 0.00 | 0.00 | 0.00 | 50 | 1018.7 |
| 20260901173013 | 91 | 120 | 0.0 | 0.0 | 0.00 | 0.00 | 0.00 | 52 | 1015.7 |
| 20260901172848 | 91 | 174 | 0.0 | 0.0 | 0.00 | 0.00 | 0.00 | 52 | 1018.8 |
| 20260901172545 | 90 | 120 | 0.0 | 0.0 | 0.00 | 0.00 | 0.00 | 52 | 1015.7 |
| 20260901172344 | 91 | 134 | 0.0 | 0.0 | 0.00 | 0.00 | 0.00 | 52 | 1018.8 |
| 20260901172009 | 90 | 330 | 0.0 | 0.0 | 0.00 | 0.00 | 0.00 | 52 | 1015.9 |
| 20260901171840 | 90 | 118 | 0.0 | 0.0 | 0.00 | 0.00 | 0.00 | 53 | 1018.9 |
| 20260901171542 | 90 | 124 | 0.0 | 0.0 | 0.00 | 0.00 | 0.00 | 53 | 1016.0 |
| 20260901171315 | 90 | 179 | 0.0 | 0.0 | 0.00 | 0.00 | 0.00 | 52 | 1019.0 |
| 20260901171036 | 89 | 201 | 0.0 | 0.0 | 0.00 | 0.00 | 0.00 | 53 | 1016.0 |
| 20260901170853 | 90 | 198 | 0.0 | 0.0 | 0.00 | 0.00 | 0.00 | 53 | 1019.1 |
| 20260901170557 | 89 | 241 | 0.0 | 0.0 | 0.00 | 0.00 | 0.00 | 54 | 1016.2 |
| 20260901170331 | 90 | 215 | 0.0 | 0.0 | 0.00 | 0.00 | 0.00 | 54 | 1019.2 |
| 20260901170101 | 89 | 211 | 0.0 | 0.0 | 0.00 | 0.00 | 0.00 | 53 | 1016.4 |
| 20260901165829 | 90 | 168 | 0.0 | 0.0 | 0.00 | 0.00 | 0.00 | 54 | 1019.5 |
| 20260901165539 | 89 | 139 | 0.0 | 0.0 | 0.00 | 0.00 | 0.00 | 55 | 1016.4 |
| 20260901165325 | 89 | 354 | 0.0 | 0.0 | 0.00 | 0.00 | 0.00 | 54 | 1019.4 |
| 20260901165031 | 89 | 163 | 0.0 | 0.0 | 0.00 | 0.00 | 0.00 | 55 | 1016.5 |
| 20260901164825 | 89 | 172 | 0.0 | 0.0 | 0.00 | 0.00 | 0.00 | 55 | 1019.4 |
| 20260901164526 | 89 | 139 | 0.0 | 0.0 | 0.00 | 0.00 | 0.00 | 54 | 1016.5 |
| 20260901164321 | 89 | 154 | 0.0 | 0.0 | 0.00 | 0.00 | 0.00 | 54 | 1019.4 |
| 20260901164008 | 88 | 115 | 0.0 | 0.0 | 0.00 | 0.00 | 0.00 | 54 | 1016.4 |
| 20260901163818 | 89 | 139 | 0.0 | 0.0 | 0.00 | 0.00 | 0.00 | 56 | 1019.5 |
| 20260901163559 | 88 | 147 | 0.0 | 0.0 | 0.00 | 0.00 | 0.00 | 56 | 1016.5 |
| 20260901163400 | 88 | 236 | 0.0 | 0.0 | 0.00 | 0.00 | 0.00 | 58 | 1019.3 |
| 20260901163032 | 87 | 359 | 0.0 | 0.0 | 0.00 | 0.00 | 0.00 | 57 | 1016.4 |
| 20260901162830 | 88 | 194 | 0.0 | 0.0 | 0.00 | 0.00 | 0.00 | 57 | 1019.4 |
| 20260901162513 | 87 | 210 | 0.0 | 0.0 | 0.00 | 0.00 | 0.00 | 58 | 1016.4 |
| 20260901162326 | 88 | 217 | 0.0 | 0.0 | 0.00 | 0.00 | 0.00 | 59 | 1019.4 |
| 20260901162005 | 87 | 279 | 0.0 | 0.0 | 0.00 | 0.00 | 0.00 | 59 | 1016.4 |
| 20260901161847 | 87 | 246 | 0.0 | 0.0 | 0.00 | 0.00 | 0.00 | 59 | 1019.4 |
| 20260901161541 | 87 | 222 | 0.0 | 0.0 | 0.00 | 0.00 | 0.00 | 59 | 1016.5 |
| 20260901161322 | 87 | 218 | 0.0 | 0.0 | 0.00 | 0.00 | 0.00 | 58 | 1019.5 |
| 20260901161037 | 87 | 224 | 0.0 | 0.0 | 0.00 | 0.00 | 0.00 | 58 | 1016.5 |
| 20260901160840 | 87 | 181 | 0.0 | 0.0 | 0.00 | 0.00 | 0.00 | 59 | 1019.5 |
| 20260901160527 | 87 | 117 | 0.0 | 0.0 | 0.00 | 0.00 | 0.00 | 61 | 1016.5 |
| 20260901160332 | 87 | 124 | 0.0 | 0.0 | 0.00 | 0.00 | 0.00 | 61 | 1019.4 |
| 20260901160010 | 86 | 226 | 0.0 | 0.0 | 0.00 | 0.00 | 0.00 | 61 | 1016.5 |
| 20260901155828 | 87 | 68 | 0.0 | 0.0 | 0.00 | 0.00 | 0.00 | 61 | 1019.4 |
| 20260901155601 | 86 | 169 | 0.0 | 0.0 | 0.00 | 0.00 | 0.00 | 63 | 1016.5 |
| 20260901155324 | 86 | 218 | 0.0 | 0.0 | 0.00 | 0.00 | 0.00 | 63 | 1019.4 |
| 20260901155053 | 85 | 218 | 0.0 | 0.0 | 0.00 | 0.00 | 0.00 | 62 | 1016.4 |
| 20260901154841 | 86 | 159 | 0.0 | 0.0 | 0.00 | 0.00 | 0.00 | 62 | 1019.4 |
| 20260901154524 | 85 | 138 | 0.0 | 0.0 | 0.00 | 0.00 | 0.00 | 63 | 1016.5 |
| 20260901154317 | 86 | 126 | 0.0 | 0.0 | 0.00 | 0.00 | 0.00 | 63 | 1019.4 |
| 20260901154015 | 85 | 170 | 0.0 | 0.0 | 0.00 | 0.00 | 0.00 | 64 | 1016.5 |
| 20260901153815 | 85 | 152 | 0.0 | 0.0 | 0.00 | 0.00 | 0.00 | 64 | 1019.4 |
| 20260901153540 | 85 | 131 | 0.0 | 0.0 | 0.00 | 0.00 | 0.00 | 65 | 1016.5 |
| 20260901153331 | 85 | 133 | 0.0 | 0.0 | 0.00 | 0.00 | 0.00 | 65 | 1019.5 |
| 20260901153033 | 84 | 134 | 0.0 | 0.0 | 0.00 | 0.00 | 0.00 | 65 | 1016.5 |
| 20260901152851 | 85 | 174 | 0.0 | 0.0 | 0.00 | 0.00 | 0.00 | 66 | 1019.5 |
| 20260901152553 | 84 | 146 | 0.0 | 0.0 | 0.00 | 0.00 | 0.00 | 67 | 1016.5 |
| 20260901152329 | 84 | 147 | 0.0 | 0.0 | 0.00 | 0.00 | 0.00 | 67 | 1019.5 |
| 20260901152045 | 83 | 230 | 0.0 | 0.0 | 0.00 | 0.00 | 0.00 | 68 | 1016.5 |
| 20260901151825 | 84 | 213 | 0.0 | 0.0 | 0.00 | 0.00 | 0.00 | 68 | 1019.6 |
| 20260901151535 | 83 | 116 | 0.0 | 0.0 | 0.00 | 0.00 | 0.00 | 69 | 1016.6 |
| 20260901151323 | 83 | 197 | 0.0 | 0.0 | 0.00 | 0.00 | 0.00 | 70 | 1019.5 |
| 20260901151026 | 83 | 220 | 0.0 | 0.0 | 0.00 | 0.00 | 0.00 | 70 | 1016.5 |
| 20260901150820 | 83 | 136 | 0.0 | 0.0 | 0.00 | 0.00 | 0.00 | 72 | 1019.4 |
| 20260901150517 | 82 | 246 | 0.0 | 0.0 | 0.00 | 0.00 | 0.00 | 72 | 1016.6 |
| 20260901150319 | 82 | 246 | 0.0 | 0.0 | 0.00 | 0.00 | 0.00 | 73 | 1019.6 |
| 20260901150107 | 82 | 247 | 0.0 | 0.0 | 0.00 | 0.00 | 0.00 | 73 | 1016.6 |
| 20260901145851 | 82 | 188 | 0.0 | 0.0 | 0.00 | 0.00 | 0.00 | 73 | 1019.6 |
| 20260901145533 | 81 | 183 | 0.0 | 0.0 | 0.00 | 0.00 | 0.00 | 74 | 1016.7 |
| 20260901145330 | 82 | 168 | 0.0 | 0.0 | 0.00 | 0.00 | 0.00 | 74 | 1019.6 |
| 20260901145014 | 81 | 244 | 0.0 | 0.0 | 0.00 | 0.00 | 0.00 | 76 | 1016.8 |
| 20260901144829 | 81 | 243 | 0.0 | 0.0 | 0.00 | 0.00 | 0.00 | 76 | 1019.6 |
| 20260901144507 | 80 | 255 | 0.0 | 0.0 | 0.00 | 0.00 | 0.00 | 76 | 1016.7 |
| 20260901144326 | 81 | 259 | 0.0 | 0.0 | 0.00 | 0.00 | 0.00 | 76 | 1019.7 |
| 20260901144101 | 80 | 232 | 0.0 | 0.0 | 0.00 | 0.00 | 0.00 | 76 | 1016.8 |
| 20260901143844 | 80 | 267 | 0.0 | 0.0 | 0.00 | 0.00 | 0.00 | 77 | 1019.7 |
| 20260901143531 | 80 | 237 | 0.0 | 0.0 | 0.00 | 0.00 | 0.00 | 77 | 1016.8 |
| 20260901143322 | 80 | 239 | 0.0 | 0.0 | 0.00 | 0.00 | 0.00 | 77 | 1019.7 |
| 20260901143023 | 79 | 212 | 0.0 | 0.0 | 0.00 | 0.00 | 0.00 | 77 | 1016.7 |
| 20260901142819 | 80 | 212 | 0.0 | 0.0 | 0.00 | 0.00 | 0.00 | 77 | 1019.8 |
| 20260901142504 | 79 | 213 | 0.0 | 0.0 | 0.00 | 0.00 | 0.00 | 77 | 1016.8 |
| 20260901142316 | 79 | 213 | 0.0 | 0.0 | 0.00 | 0.00 | 0.00 | 78 | 1019.8 |
| 20260901142057 | 79 | 199 | 0.0 | 0.0 | 0.00 | 0.00 | 0.00 | 78 | 1016.9 |
| 20260901141853 | 79 | 241 | 0.0 | 0.0 | 0.00 | 0.00 | 0.00 | 79 | 1019.8 |
| 20260901141517 | 79 | 222 | 0.0 | 0.0 | 0.00 | 0.00 | 0.00 | 79 | 1016.9 |
| 20260901141351 | 79 | 222 | 0.0 | 0.0 | 0.00 | 0.00 | 0.00 | 79 | 1019.7 |
| 20260901141049 | 78 | 224 | 0.0 | 0.0 | 0.00 | 0.00 | 0.00 | 79 | 1016.9 |
| 20260901140829 | 79 | 224 | 0.0 | 0.0 | 0.00 | 0.00 | 0.00 | 79 | 1019.8 |
| 20260901140540 | 78 | 224 | 0.0 | 0.0 | 0.00 | 0.00 | 0.00 | 80 | 1017.0 |
| 20260901140326 | 78 | 224 | 0.0 | 0.0 | 0.00 | 0.00 | 0.00 | 80 | 1019.7 |
| 20260901140042 | 78 | 224 | 0.0 | 0.0 | 0.00 | 0.00 | 0.00 | 80 | 1016.8 |
| 20260901135822 | 78 | 261 | 0.0 | 0.0 | 0.00 | 0.00 | 0.00 | 81 | 1019.7 |
| 20260901135555 | 77 | 261 | 0.0 | 0.0 | 0.00 | 0.00 | 0.00 | 81 | 1016.8 |
| 20260901135339 | 78 | 261 | 0.0 | 0.0 | 0.00 | 0.00 | 0.00 | 81 | 1019.7 |
| 20260901135042 | 77 | 261 | 0.0 | 0.0 | 0.00 | 0.00 | 0.00 | 81 | 1016.7 |
| 20260901134831 | 77 | 261 | 0.0 | 0.0 | 0.00 | 0.00 | 0.00 | 81 | 1019.7 |
| 20260901134537 | 76 | 261 | 0.0 | 0.0 | 0.00 | 0.00 | 0.00 | 81 | 1016.7 |
| 20260901134329 | 77 | 261 | 0.0 | 0.0 | 0.00 | 0.00 | 0.00 | 82 | 1019.6 |
| 20260901134019 | 76 | 208 | 0.0 | 0.0 | 0.00 | 0.00 | 0.00 | 82 | 1016.7 |
| 20260901133844 | 76 | 208 | 0.0 | 0.0 | 0.00 | 0.00 | 0.00 | 82 | 1019.7 |
| 20260901133547 | 76 | 208 | 0.0 | 0.0 | 0.00 | 0.00 | 0.00 | 82 | 1016.6 |
| 20260901133323 | 76 | 208 | 0.0 | 0.0 | 0.00 | 0.00 | 0.00 | 83 | 1019.5 |
| 20260901133046 | 75 | 208 | 0.0 | 0.0 | 0.00 | 0.00 | 0.00 | 83 | 1016.6 |
| 20260901132820 | 75 | 208 | 0.0 | 0.0 | 0.00 | 0.00 | 0.00 | 83 | 1019.5 |
| 20260901132529 | 75 | 208 | 0.0 | 0.0 | 0.00 | 0.00 | 0.00 | 83 | 1016.7 |
| 20260901132317 | 75 | 208 | 0.0 | 0.0 | 0.00 | 0.00 | 0.00 | 83 | 1019.5 |
| 20260901132021 | 74 | 208 | 0.0 | 1.0 | 0.00 | 0.00 | 0.00 | 83 | 1016.7 |
| 20260901131814 | 74 | 208 | 0.0 | 1.0 | 0.00 | 0.00 | 0.00 | 83 | 1019.6 |
| 20260901131548 | 74 | 208 | 0.0 | 1.0 | 0.00 | 0.00 | 0.00 | 83 | 1016.7 |
| 20260901131330 | 74 | 208 | 0.0 | 1.0 | 0.00 | 0.00 | 0.00 | 83 | 1019.5 |
| 20260901131042 | 73 | 208 | 0.0 | 1.0 | 0.00 | 0.00 | 0.00 | 83 | 1016.6 |
| 20260901130828 | 74 | 208 | 0.0 | 1.0 | 0.00 | 0.00 | 0.00 | 83 | 1019.5 |
| 20260901130538 | 73 | 208 | 0.0 | 1.0 | 0.00 | 0.00 | 0.00 | 83 | 1016.5 |
| 20260901130325 | 73 | 208 | 0.0 | 0.0 | 0.00 | 0.00 | 0.00 | 83 | 1019.4 |
| 20260901130043 | 73 | 208 | 0.0 | 0.0 | 0.00 | 0.00 | 0.00 | 82 | 1016.4 |
| 20260901125825 | 73 | 208 | 0.0 | 0.0 | 0.00 | 0.00 | 0.00 | 82 | 1019.2 |
| 20260901125530 | 73 | 208 | 0.0 | 1.0 | 0.00 | 0.00 | 0.00 | 82 | 1016.4 |
| 20260901125321 | 73 | 208 | 0.0 | 1.0 | 0.00 | 0.00 | 0.00 | 82 | 1019.2 |
| 20260901125056 | 73 | 208 | 0.0 | 1.0 | 0.00 | 0.00 | 0.00 | 82 | 1016.2 |
| 20260901124819 | 73 | 208 | 0.0 | 1.0 | 0.00 | 0.00 | 0.00 | 82 | 1019.1 |
| 20260901124547 | 73 | 208 | 0.0 | 2.0 | 0.00 | 0.00 | 0.00 | 82 | 1016.2 |
| 20260901124317 | 73 | 208 | 0.0 | 2.0 | 0.00 | 0.00 | 0.00 | 82 | 1019.1 |
| 20260901124040 | 73 | 208 | 0.0 | 2.0 | 0.00 | 0.00 | 0.00 | 83 | 1016.2 |
| 20260901123816 | 73 | 208 | 1.0 | 2.0 | 0.00 | 0.00 | 0.00 | 83 | 1019.1 |
| 20260901123533 | 73 | 208 | 0.0 | 2.0 | 0.00 | 0.00 | 0.00 | 83 | 1016.2 |
| 20260901123318 | 73 | 208 | 0.0 | 2.0 | 0.00 | 0.00 | 0.00 | 83 | 1019.2 |
| 20260901123027 | 73 | 208 | 0.0 | 2.0 | 0.00 | 0.00 | 0.00 | 82 | 1016.2 |
| 20260901122815 | 73 | 208 | 0.0 | 2.0 | 0.00 | 0.00 | 0.00 | 82 | 1019.0 |
| 20260901122511 | 73 | 208 | 0.0 | 1.0 | 0.00 | 0.00 | 0.00 | 82 | 1016.0 |
| 20260901122332 | 73 | 208 | 0.0 | 1.0 | 0.00 | 0.00 | 0.00 | 82 | 1018.9 |
| 20260901122007 | 73 | 208 | 0.0 | 0.0 | 0.00 | 0.00 | 0.00 | 82 | 1015.8 |
| 20260901121846 | 73 | 208 | 0.0 | 0.0 | 0.00 | 0.00 | 0.00 | 82 | 1018.7 |
| 20260901121537 | 73 | 208 | 0.0 | 2.0 | 0.00 | 0.00 | 0.00 | 81 | 1015.8 |
| 20260901121324 | 73 | 208 | 0.0 | 2.0 | 0.00 | 0.00 | 0.00 | 81 | 1018.7 |
| 20260901121031 | 73 | 208 | 0.0 | 2.0 | 0.00 | 0.00 | 0.00 | 81 | 1015.7 |
| 20260901120823 | 73 | 208 | 1.0 | 2.0 | 0.00 | 0.00 | 0.00 | 81 | 1018.7 |
| 20260901120525 | 73 | 208 | 0.0 | 2.0 | 0.00 | 0.00 | 0.00 | 81 | 1015.8 |
| 20260901120340 | 73 | 208 | 1.0 | 2.0 | 0.00 | 0.00 | 0.00 | 81 | 1018.8 |
| 20260901120055 | 73 | 208 | 1.0 | 2.0 | 0.00 | 0.00 | 0.00 | 81 | 1015.8 |
| 20260901115817 | 73 | 208 | 1.0 | 2.0 | 0.00 | 0.00 | 0.00 | 80 | 1018.8 |
| 20260901115540 | 73 | 208 | 0.0 | 2.0 | 0.00 | 0.00 | 0.00 | 80 | 1015.8 |
| 20260901115313 | 74 | 208 | 1.0 | 2.0 | 0.00 | 0.00 | 0.00 | 80 | 1018.6 |
| 20260901115035 | 73 | 208 | 1.0 | 2.0 | 0.00 | 0.00 | 0.00 | 80 | 1015.7 |
| 20260901114850 | 74 | 208 | 0.0 | 1.0 | 0.00 | 0.00 | 0.00 | 80 | 1018.6 |
| 20260901114601 | 73 | 208 | 0.0 | 0.0 | 0.00 | 0.00 | 0.00 | 80 | 1015.7 |
| 20260901114329 | 74 | 208 | 0.0 | 0.0 | 0.00 | 0.00 | 0.00 | 81 | 1018.6 |
| 20260901114050 | 73 | 208 | 0.0 | 0.0 | 0.00 | 0.00 | 0.00 | 80 | 1015.7 |
| 20260901113829 | 74 | 208 | 0.0 | 0.0 | 0.00 | 0.00 | 0.00 | 80 | 1018.7 |
| 20260901113541 | 74 | 208 | 0.0 | 2.0 | 0.00 | 0.00 | 0.00 | 79 | 1015.6 |
| 20260901113329 | 74 | 208 | 0.0 | 2.0 | 0.00 | 0.00 | 0.00 | 79 | 1018.7 |
| 20260901113033 | 74 | 208 | 0.0 | 2.0 | 0.00 | 0.00 | 0.00 | 80 | 1015.7 |
| 20260901112826 | 74 | 208 | 1.0 | 2.0 | 0.00 | 0.00 | 0.00 | 80 | 1018.6 |
| 20260901112556 | 74 | 208 | 0.0 | 2.0 | 0.00 | 0.00 | 0.00 | 80 | 1015.7 |
| 20260901112325 | 75 | 208 | 1.0 | 2.0 | 0.00 | 0.00 | 0.00 | 80 | 1018.7 |
| 20260901112048 | 74 | 208 | 0.0 | 2.0 | 0.00 | 0.00 | 0.00 | 80 | 1015.7 |
| 20260901111823 | 75 | 208 | 0.0 | 2.0 | 0.00 | 0.00 | 0.00 | 79 | 1018.6 |
| 20260901111546 | 74 | 208 | 0.0 | 2.0 | 0.00 | 0.00 | 0.00 | 79 | 1015.6 |
| 20260901111321 | 75 | 208 | 0.0 | 2.0 | 0.00 | 0.00 | 0.00 | 80 | 1018.5 |
| 20260901111035 | 74 | 208 | 0.0 | 2.0 | 0.00 | 0.00 | 0.00 | 80 | 1015.7 |
| 20260901110820 | 75 | 208 | 1.0 | 2.0 | 0.00 | 0.00 | 0.00 | 80 | 1018.6 |
| 20260901110526 | 74 | 208 | 0.0 | 2.0 | 0.00 | 0.00 | 0.00 | 79 | 1015.6 |
| 20260901110317 | 75 | 208 | 1.0 | 2.0 | 0.00 | 0.00 | 0.00 | 79 | 1018.5 |
| 20260901110019 | 75 | 208 | 0.0 | 2.0 | 0.00 | 0.00 | 0.00 | 79 | 1015.6 |
| 20260901105815 | 75 | 208 | 0.0 | 2.0 | 0.00 | 0.00 | 0.00 | 79 | 1018.6 |
| 20260901105505 | 75 | 208 | 0.0 | 2.0 | 0.00 | 0.00 | 0.00 | 79 | 1015.6 |
| 20260901105314 | 75 | 208 | 1.0 | 2.0 | 0.00 | 0.00 | 0.00 | 79 | 1018.6 |
| 20260901105101 | 75 | 208 | 1.0 | 2.0 | 0.00 | 0.00 | 0.00 | 79 | 1015.7 |
| 20260901104831 | 75 | 208 | 1.0 | 2.0 | 0.00 | 0.00 | 0.00 | 78 | 1018.6 |
| 20260901104554 | 75 | 208 | 1.0 | 2.0 | 0.00 | 0.00 | 0.00 | 78 | 1015.7 |
| 20260901104327 | 75 | 208 | 1.0 | 2.0 | 0.00 | 0.00 | 0.00 | 78 | 1018.7 |
| 20260901104041 | 75 | 208 | 1.0 | 3.0 | 0.00 | 0.00 | 0.00 | 78 | 1015.7 |
| 20260901103823 | 76 | 208 | 1.0 | 3.0 | 0.00 | 0.00 | 0.00 | 78 | 1018.7 |
| 20260901103506 | 75 | 208 | 1.0 | 3.0 | 0.00 | 0.00 | 0.00 | 77 | 1015.6 |
| 20260901103340 | 76 | 208 | 2.0 | 3.0 | 0.00 | 0.00 | 0.00 | 77 | 1018.5 |
| 20260901103037 | 76 | 208 | 2.0 | 3.0 | 0.00 | 0.00 | 0.00 | 77 | 1015.5 |
| 20260901102816 | 76 | 208 | 3.0 | 3.0 | 0.00 | 0.00 | 0.00 | 77 | 1018.4 |
| 20260901102530 | 76 | 208 | 0.0 | 2.0 | 0.00 | 0.00 | 0.00 | 77 | 1015.4 |
| 20260901102333 | 77 | 208 | 0.0 | 2.0 | 0.00 | 0.00 | 0.00 | 76 | 1018.3 |
| 20260901102011 | 76 | 208 | 0.0 | 6.0 | 0.00 | 0.00 | 0.00 | 76 | 1015.3 |
| 20260901101830 | 77 | 208 | 1.0 | 6.0 | 0.00 | 0.00 | 0.00 | 76 | 1018.3 |
| 20260901101502 | 76 | 208 | 1.0 | 6.0 | 0.00 | 0.00 | 0.00 | 76 | 1015.3 |
| 20260901101326 | 77 | 208 | 3.0 | 6.0 | 0.00 | 0.00 | 0.00 | 76 | 1018.3 |
| 20260901101058 | 76 | 210 | 2.0 | 5.0 | 0.00 | 0.00 | 0.00 | 76 | 1015.4 |
| 20260901100823 | 77 | 217 | 3.0 | 5.0 | 0.00 | 0.00 | 0.00 | 76 | 1018.4 |
| 20260901100548 | 76 | 216 | 3.0 | 5.0 | 0.00 | 0.00 | 0.00 | 76 | 1015.4 |
| 20260901100321 | 77 | 223 | 3.0 | 6.0 | 0.00 | 0.00 | 0.00 | 76 | 1018.3 |
| 20260901100043 | 76 | 219 | 3.0 | 6.0 | 0.00 | 0.00 | 0.00 | 76 | 1015.4 |
| 20260901095838 | 77 | 216 | 3.0 | 6.0 | 0.00 | 0.00 | 0.00 | 76 | 1018.4 |
| 20260901095513 | 77 | 214 | 3.0 | 5.0 | 0.00 | 0.00 | 0.00 | 76 | 1015.5 |
| 20260901095314 | 77 | 207 | 4.0 | 5.0 | 0.00 | 0.00 | 0.00 | 75 | 1018.4 |
| 20260901095058 | 77 | 220 | 2.0 | 5.0 | 0.00 | 0.00 | 0.00 | 75 | 1015.4 |
| 20260901094833 | 77 | 218 | 3.0 | 5.0 | 0.00 | 0.00 | 0.00 | 75 | 1018.2 |
| 20260901094551 | 77 | 218 | 3.0 | 6.0 | 0.00 | 0.00 | 0.00 | 75 | 1015.2 |
| 20260901094330 | 77 | 213 | 3.0 | 6.0 | 0.00 | 0.00 | 0.00 | 75 | 1018.3 |
| 20260901094041 | 77 | 182 | 3.0 | 6.0 | 0.00 | 0.00 | 0.00 | 75 | 1015.4 |
| 20260901093829 | 77 | 187 | 3.0 | 4.0 | 0.00 | 0.00 | 0.00 | 75 | 1018.3 |
| 20260901093537 | 77 | 187 | 2.0 | 4.0 | 0.00 | 0.00 | 0.00 | 75 | 1015.4 |
| 20260901093327 | 78 | 187 | 3.0 | 5.0 | 0.00 | 0.00 | 0.00 | 75 | 1018.4 |
| 20260901093022 | 77 | 187 | 2.0 | 6.0 | 0.00 | 0.00 | 0.00 | 75 | 1015.4 |
| 20260901092825 | 78 | 187 | 3.0 | 6.0 | 0.00 | 0.00 | 0.00 | 75 | 1018.5 |
| 20260901092502 | 77 | 187 | 3.0 | 6.0 | 0.00 | 0.00 | 0.00 | 75 | 1015.6 |
| 20260901092322 | 78 | 186 | 3.0 | 5.0 | 0.00 | 0.00 | 0.00 | 75 | 1018.5 |
| 20260901092059 | 78 | 186 | 3.0 | 5.0 | 0.00 | 0.00 | 0.00 | 75 | 1015.6 |
| 20260901091821 | 78 | 186 | 3.0 | 5.0 | 0.00 | 0.00 | 0.00 | 75 | 1018.6 |
| 20260901091547 | 78 | 186 | 3.0 | 5.0 | 0.00 | 0.00 | 0.00 | 75 | 1015.6 |
| 20260901091319 | 78 | 186 | 3.0 | 5.0 | 0.00 | 0.00 | 0.00 | 75 | 1018.6 |
| 20260901091036 | 78 | 183 | 2.0 | 5.0 | 0.00 | 0.00 | 0.00 | 74 | 1015.6 |
| 20260901090816 | 78 | 186 | 3.0 | 5.0 | 0.00 | 0.00 | 0.00 | 74 | 1018.5 |
| 20260901090528 | 78 | 189 | 3.0 | 5.0 | 0.00 | 0.00 | 0.00 | 74 | 1015.6 |
| 20260901090314 | 79 | 191 | 2.0 | 6.0 | 0.00 | 0.00 | 0.00 | 74 | 1018.7 |
| 20260901090012 | 78 | 167 | 3.0 | 6.0 | 0.00 | 0.00 | 0.00 | 74 | 1015.7 |
| 20260901085831 | 79 | 191 | 3.0 | 6.0 | 0.00 | 0.00 | 0.00 | 74 | 1018.7 |
| 20260901085503 | 78 | 191 | 4.0 | 6.0 | 0.00 | 0.00 | 0.00 | 74 | 1015.7 |
| 20260901085348 | 79 | 191 | 3.0 | 6.0 | 0.00 | 0.00 | 0.00 | 74 | 1018.7 |
| 20260901085034 | 78 | 209 | 3.0 | 6.0 | 0.00 | 0.00 | 0.00 | 74 | 1015.7 |
| 20260901084825 | 79 | 195 | 4.0 | 8.0 | 0.00 | 0.00 | 0.00 | 74 | 1018.6 |
| 20260901084524 | 79 | 194 | 2.0 | 8.0 | 0.00 | 0.00 | 0.00 | 74 | 1015.7 |
| 20260901084323 | 79 | 208 | 3.0 | 8.0 | 0.00 | 0.00 | 0.00 | 74 | 1018.7 |
| 20260901084006 | 79 | 204 | 2.0 | 5.0 | 0.00 | 0.00 | 0.00 | 74 | 1015.8 |
| 20260901083822 | 79 | 204 | 3.0 | 6.0 | 0.00 | 0.00 | 0.00 | 74 | 1018.7 |
| 20260901083600 | 79 | 178 | 2.0 | 6.0 | 0.00 | 0.00 | 0.00 | 74 | 1015.7 |
| 20260901083321 | 79 | 174 | 2.0 | 6.0 | 0.00 | 0.00 | 0.00 | 74 | 1018.6 |
| 20260901083051 | 79 | 174 | 3.0 | 6.0 | 0.00 | 0.00 | 0.00 | 74 | 1015.7 |
| 20260901082818 | 79 | 183 | 3.0 | 6.0 | 0.00 | 0.00 | 0.00 | 74 | 1018.6 |
| 20260901082542 | 79 | 192 | 3.0 | 6.0 | 0.00 | 0.00 | 0.00 | 74 | 1015.6 |
| 20260901082315 | 80 | 193 | 3.0 | 6.0 | 0.00 | 0.00 | 0.00 | 74 | 1018.5 |
| 20260901082035 | 79 | 193 | 3.0 | 6.0 | 0.00 | 0.00 | 0.00 | 74 | 1015.5 |
| 20260901081814 | 80 | 193 | 3.0 | 6.0 | 0.00 | 0.00 | 0.00 | 74 | 1018.5 |
| 20260901081516 | 79 | 193 | 2.0 | 6.0 | 0.00 | 0.00 | 0.00 | 73 | 1015.4 |
| 20260901081329 | 80 | 193 | 3.0 | 6.0 | 0.00 | 0.00 | 0.00 | 73 | 1018.4 |
| 20260901081006 | 79 | 193 | 3.0 | 7.0 | 0.00 | 0.00 | 0.00 | 73 | 1015.4 |
| 20260901080826 | 80 | 179 | 3.0 | 7.0 | 0.00 | 0.00 | 0.00 | 73 | 1018.3 |
| 20260901080601 | 80 | 205 | 3.0 | 7.0 | 0.00 | 0.00 | 0.00 | 73 | 1015.3 |
| 20260901080324 | 80 | 196 | 4.0 | 7.0 | 0.00 | 0.00 | 0.00 | 73 | 1018.3 |
| 20260901080052 | 80 | 195 | 3.0 | 10.0 | 0.00 | 0.00 | 0.00 | 73 | 1015.3 |
| 20260901075821 | 80 | 195 | 3.0 | 10.0 | 0.00 | 0.00 | 0.00 | 73 | 1018.2 |
| 20260901075545 | 80 | 181 | 4.0 | 10.0 | 0.00 | 0.00 | 0.00 | 73 | 1015.3 |
| 20260901075318 | 80 | 183 | 6.0 | 10.0 | 0.00 | 0.00 | 0.00 | 73 | 1018.2 |
| 20260901075036 | 80 | 177 | 5.0 | 10.0 | 0.00 | 0.00 | 0.00 | 73 | 1015.3 |
| 20260901074816 | 81 | 185 | 6.0 | 10.0 | 0.00 | 0.00 | 0.00 | 73 | 1018.2 |
| 20260901074518 | 80 | 172 | 5.0 | 9.0 | 0.00 | 0.00 | 0.00 | 72 | 1015.2 |
| 20260901074353 | 81 | 204 | 6.0 | 9.0 | 0.00 | 0.00 | 0.00 | 72 | 1018.1 |
| 20260901074054 | 80 | 242 | 5.0 | 9.0 | 0.00 | 0.00 | 0.00 | 72 | 1015.1 |
| 20260901073829 | 81 | 181 | 5.0 | 9.0 | 0.00 | 0.00 | 0.00 | 72 | 1018.1 |
| 20260901073540 | 80 | 199 | 5.0 | 11.0 | 0.00 | 0.00 | 0.00 | 72 | 1015.3 |
| 20260901073346 | 81 | 179 | 5.0 | 11.0 | 0.00 | 0.00 | 0.00 | 72 | 1018.2 |
| 20260901073003 | 81 | 201 | 6.0 | 12.0 | 0.00 | 0.00 | 0.00 | 72 | 1015.2 |
| 20260901072822 | 81 | 183 | 6.0 | 11.0 | 0.00 | 0.00 | 0.00 | 72 | 1018.1 |
| 20260901072556 | 81 | 195 | 6.0 | 11.0 | 0.00 | 0.00 | 0.00 | 71 | 1015.1 |
| 20260901072340 | 81 | 202 | 7.0 | 11.0 | 0.00 | 0.00 | 0.00 | 71 | 1018.1 |
| 20260901072045 | 81 | 201 | 7.0 | 12.0 | 0.00 | 0.00 | 0.00 | 71 | 1015.2 |
| 20260901071831 | 81 | 171 | 8.0 | 12.0 | 0.00 | 0.00 | 0.00 | 71 | 1018.3 |
| 20260901071534 | 81 | 193 | 5.0 | 11.0 | 0.00 | 0.00 | 0.00 | 71 | 1015.3 |
| 20260901071351 | 81 | 204 | 7.0 | 11.0 | 0.00 | 0.00 | 0.00 | 71 | 1018.2 |
| 20260901071056 | 81 | 197 | 6.0 | 13.0 | 0.00 | 0.00 | 0.00 | 71 | 1015.3 |
| 20260901070827 | 81 | 181 | 7.0 | 13.0 | 0.00 | 0.00 | 0.00 | 71 | 1018.2 |
| 20260901070553 | 81 | 187 | 7.0 | 13.0 | 0.00 | 0.00 | 0.00 | 71 | 1015.3 |
| 20260901070325 | 81 | 179 | 6.0 | 10.0 | 0.00 | 0.00 | 0.00 | 71 | 1018.2 |
| 20260901070050 | 81 | 166 | 6.0 | 10.0 | 0.00 | 0.00 | 0.00 | 71 | 1015.3 |
| 20260901065823 | 81 | 202 | 6.0 | 10.0 | 0.00 | 0.00 | 0.00 | 71 | 1018.2 |
| 20260901065546 | 81 | 231 | 4.0 | 10.0 | 0.00 | 0.00 | 0.00 | 70 | 1015.2 |
| 20260901065321 | 81 | 166 | 7.0 | 10.0 | 0.00 | 0.00 | 0.00 | 70 | 1018.2 |
| 20260901065040 | 81 | 194 | 6.0 | 9.0 | 0.00 | 0.00 | 0.00 | 70 | 1015.3 |
| 20260901064840 | 81 | 198 | 6.0 | 9.0 | 0.00 | 0.00 | 0.00 | 70 | 1018.3 |
| 20260901064532 | 81 | 186 | 4.0 | 10.0 | 0.00 | 0.00 | 0.00 | 70 | 1015.3 |
| 20260901064331 | 81 | 187 | 5.0 | 10.0 | 0.00 | 0.00 | 0.00 | 70 | 1018.1 |
| 20260901064016 | 81 | 197 | 4.0 | 10.0 | 0.00 | 0.00 | 0.00 | 69 | 1015.2 |
| 20260901063830 | 81 | 168 | 4.0 | 10.0 | 0.00 | 0.00 | 0.00 | 69 | 1018.2 |
| 20260901063511 | 81 | 200 | 3.0 | 9.0 | 0.00 | 0.00 | 0.00 | 69 | 1015.2 |
| 20260901063327 | 81 | 172 | 4.0 | 9.0 | 0.00 | 0.00 | 0.00 | 69 | 1018.2 |
| 20260901063104 | 81 | 179 | 5.0 | 8.0 | 0.00 | 0.00 | 0.00 | 69 | 1015.2 |
| 20260901062823 | 81 | 161 | 5.0 | 10.0 | 0.00 | 0.00 | 0.00 | 68 | 1018.1 |
| 20260901062537 | 81 | 157 | 5.0 | 10.0 | 0.00 | 0.00 | 0.00 | 68 | 1015.1 |
| 20260901062321 | 81 | 157 | 6.0 | 10.0 | 0.00 | 0.00 | 0.00 | 68 | 1018.1 |
| 20260901062028 | 81 | 174 | 7.0 | 10.0 | 0.00 | 0.00 | 0.00 | 67 | 1015.1 |
| 20260901061817 | 81 | 156 | 6.0 | 11.0 | 0.00 | 0.00 | 0.00 | 67 | 1018.1 |
| 20260901061522 | 81 | 170 | 5.0 | 9.0 | 0.00 | 0.00 | 0.00 | 66 | 1015.1 |
| 20260901061337 | 81 | 188 | 6.0 | 9.0 | 0.00 | 0.00 | 0.00 | 66 | 1018.1 |
| 20260901061013 | 81 | 161 | 5.0 | 9.0 | 0.00 | 0.00 | 0.00 | 66 | 1015.1 |
| 20260901060830 | 81 | 186 | 6.0 | 9.0 | 0.00 | 0.00 | 0.00 | 66 | 1018.1 |
| 20260901060556 | 81 | 184 | 5.0 | 9.0 | 0.00 | 0.00 | 0.00 | 65 | 1015.0 |
| 20260901060327 | 81 | 185 | 5.0 | 9.0 | 0.00 | 0.00 | 0.00 | 65 | 1018.0 |
| 20260901060050 | 81 | 193 | 5.0 | 9.0 | 0.00 | 0.00 | 0.00 | 65 | 1014.9 |
| 20260901055822 | 81 | 170 | 5.0 | 10.0 | 0.00 | 0.00 | 0.00 | 64 | 1017.8 |
| 20260901055526 | 81 | 191 | 7.0 | 10.0 | 0.00 | 0.00 | 0.00 | 64 | 1014.9 |
| 20260901055320 | 81 | 152 | 7.0 | 10.0 | 0.00 | 0.00 | 0.00 | 64 | 1017.9 |
| 20260901055020 | 81 | 166 | 7.0 | 10.0 | 0.00 | 0.00 | 0.00 | 64 | 1014.9 |
| 20260901054818 | 81 | 179 | 7.0 | 9.0 | 0.00 | 0.00 | 0.00 | 63 | 1017.9 |
| 20260901054510 | 81 | 166 | 5.0 | 10.0 | 0.00 | 0.00 | 0.00 | 63 | 1014.8 |
| 20260901054336 | 81 | 169 | 6.0 | 10.0 | 0.00 | 0.00 | 0.00 | 62 | 1017.8 |
| 20260901054038 | 81 | 162 | 6.0 | 10.0 | 0.00 | 0.00 | 0.00 | 62 | 1015.0 |
| 20260901053814 | 81 | 156 | 5.0 | 9.0 | 0.00 | 0.00 | 0.00 | 62 | 1017.9 |
| 20260901053530 | 81 | 158 | 6.0 | 9.0 | 0.00 | 0.00 | 0.00 | 62 | 1015.0 |
| 20260901053331 | 81 | 139 | 6.0 | 9.0 | 0.00 | 0.00 | 0.00 | 61 | 1017.9 |
| 20260901053013 | 81 | 141 | 5.0 | 9.0 | 0.00 | 0.00 | 0.00 | 61 | 1015.0 |
| 20260901052850 | 81 | 173 | 6.0 | 9.0 | 0.00 | 0.00 | 0.00 | 61 | 1017.9 |
| 20260901052545 | 81 | 149 | 6.0 | 8.0 | 0.00 | 0.00 | 0.00 | 61 | 1014.9 |
| 20260901052326 | 81 | 162 | 6.0 | 7.0 | 0.00 | 0.00 | 0.00 | 61 | 1017.8 |
| 20260901052040 | 81 | 168 | 4.0 | 9.0 | 0.00 | 0.00 | 0.00 | 61 | 1014.9 |
| 20260901051824 | 81 | 158 | 5.0 | 9.0 | 0.00 | 0.00 | 0.00 | 61 | 1017.7 |
| 20260901051538 | 81 | 169 | 2.0 | 9.0 | 0.00 | 0.00 | 0.00 | 61 | 1014.9 |
| 20260901051322 | 81 | 187 | 5.0 | 9.0 | 0.00 | 0.00 | 0.00 | 61 | 1017.7 |
| 20260901051025 | 80 | 158 | 5.0 | 9.0 | 0.00 | 0.00 | 0.00 | 61 | 1014.7 |
| 20260901050820 | 81 | 157 | 4.0 | 7.0 | 0.00 | 0.00 | 0.00 | 61 | 1017.6 |
| 20260901050517 | 80 | 188 | 4.0 | 8.0 | 0.00 | 0.00 | 0.00 | 61 | 1014.8 |
| 20260901050337 | 81 | 172 | 5.0 | 8.0 | 0.00 | 0.00 | 0.00 | 61 | 1017.7 |
| 20260901050044 | 80 | 152 | 5.0 | 8.0 | 0.00 | 0.00 | 0.00 | 61 | 1014.7 |
| 20260901045817 | 80 | 157 | 6.0 | 7.0 | 0.00 | 0.00 | 0.00 | 61 | 1017.6 |
| 20260901045602 | 80 | 150 | 3.0 | 7.0 | 0.00 | 0.00 | 0.00 | 61 | 1014.7 |
| 20260901045333 | 80 | 162 | 4.0 | 7.0 | 0.00 | 0.00 | 0.00 | 61 | 1017.6 |
| 20260901045034 | 79 | 177 | 3.0 | 6.0 | 0.00 | 0.00 | 0.00 | 61 | 1014.8 |
| 20260901044851 | 80 | 171 | 4.0 | 6.0 | 0.00 | 0.00 | 0.00 | 61 | 1017.6 |
| 20260901044606 | 79 | 166 | 4.0 | 6.0 | 0.00 | 0.00 | 0.00 | 61 | 1014.8 |
| 20260901044330 | 79 | 151 | 4.0 | 6.0 | 0.00 | 0.00 | 0.00 | 61 | 1017.5 |
| 20260901044044 | 79 | 181 | 4.0 | 6.0 | 0.00 | 0.00 | 0.00 | 61 | 1014.7 |
| 20260901043826 | 79 | 160 | 4.0 | 6.0 | 0.00 | 0.00 | 0.00 | 61 | 1017.5 |
| 20260901043537 | 79 | 177 | 3.0 | 6.0 | 0.00 | 0.00 | 0.00 | 61 | 1014.6 |
| 20260901043324 | 79 | 173 | 3.0 | 6.0 | 0.00 | 0.00 | 0.00 | 61 | 1017.5 |
| 20260901043029 | 79 | 154 | 2.0 | 5.0 | 0.00 | 0.00 | 0.00 | 62 | 1014.5 |
| 20260901042821 | 79 | 154 | 2.0 | 3.0 | 0.00 | 0.00 | 0.00 | 61 | 1017.4 |
| 20260901042521 | 79 | 154 | 2.0 | 3.0 | 0.00 | 0.00 | 0.00 | 61 | 1014.5 |
| 20260901042339 | 79 | 154 | 3.0 | 3.0 | 0.00 | 0.00 | 0.00 | 61 | 1017.4 |
| 20260901042059 | 79 | 154 | 1.0 | 3.0 | 0.00 | 0.00 | 0.00 | 61 | 1014.5 |
| 20260901041830 | 79 | 154 | 1.0 | 2.0 | 0.00 | 0.00 | 0.00 | 61 | 1017.5 |
| 20260901041550 | 79 | 154 | 0.0 | 3.0 | 0.00 | 0.00 | 0.00 | 61 | 1014.5 |
| 20260901041329 | 79 | 154 | 1.0 | 3.0 | 0.00 | 0.00 | 0.00 | 61 | 1017.4 |
| 20260901041040 | 79 | 154 | 1.0 | 3.0 | 0.00 | 0.00 | 0.00 | 60 | 1014.5 |
| 20260901040826 | 80 | 154 | 1.0 | 2.0 | 0.00 | 0.00 | 0.00 | 60 | 1017.4 |
| 20260901040533 | 79 | 154 | 0.0 | 0.0 | 0.00 | 0.00 | 0.00 | 60 | 1014.5 |
| 20260901040323 | 80 | 154 | 0.0 | 0.0 | 0.00 | 0.00 | 0.00 | 60 | 1017.4 |
| 20260901040034 | 79 | 154 | 0.0 | 1.0 | 0.00 | 0.00 | 0.00 | 59 | 1014.3 |
| 20260901035822 | 80 | 154 | 0.0 | 2.0 | 0.00 | 0.00 | 0.00 | 59 | 1017.3 |
| 20260901035534 | 80 | 154 | 0.0 | 2.0 | 0.00 | 0.00 | 0.00 | 59 | 1014.5 |
| 20260901035320 | 80 | 154 | 0.0 | 2.0 | 0.00 | 0.00 | 0.00 | 59 | 1017.4 |
| 20260901035030 | 80 | 154 | 1.0 | 2.0 | 0.00 | 0.00 | 0.00 | 59 | 1014.5 |
| 20260901034839 | 81 | 154 | 2.0 | 2.0 | 0.00 | 0.00 | 0.00 | 60 | 1017.3 |
| 20260901034525 | 80 | 154 | 0.0 | 2.0 | 0.00 | 0.00 | 0.00 | 58 | 1014.4 |
| 20260901034330 | 81 | 154 | 0.0 | 2.0 | 0.00 | 0.00 | 0.00 | 58 | 1017.4 |
| 20260901034004 | 81 | 154 | 1.0 | 2.0 | 0.00 | 0.00 | 0.00 | 58 | 1014.5 |
| 20260901033829 | 81 | 154 | 1.0 | 2.0 | 0.00 | 0.00 | 0.00 | 57 | 1017.4 |
| 20260901033558 | 81 | 154 | 1.0 | 2.0 | 0.00 | 0.00 | 0.00 | 57 | 1014.4 |
| 20260901033329 | 81 | 154 | 2.0 | 2.0 | 0.00 | 0.00 | 0.00 | 57 | 1017.4 |
| 20260901033050 | 81 | 154 | 1.0 | 2.0 | 0.00 | 0.00 | 0.00 | 57 | 1014.4 |
| 20260901032829 | 81 | 154 | 2.0 | 2.0 | 0.00 | 0.00 | 0.00 | 57 | 1017.3 |
| 20260901032542 | 81 | 154 | 1.0 | 2.0 | 0.00 | 0.00 | 0.00 | 56 | 1014.5 |
| 20260901032329 | 82 | 154 | 2.0 | 2.0 | 0.00 | 0.00 | 0.00 | 56 | 1017.4 |
| 20260901032040 | 82 | 154 | 1.0 | 2.0 | 0.00 | 0.00 | 0.00 | 56 | 1014.4 |
| 20260901031829 | 82 | 154 | 2.0 | 3.0 | 0.00 | 0.00 | 0.00 | 56 | 1017.3 |
| 20260901031533 | 82 | 154 | 1.0 | 3.0 | 0.00 | 0.00 | 0.00 | 55 | 1014.4 |
| 20260901031329 | 82 | 154 | 1.0 | 3.0 | 0.00 | 0.00 | 0.00 | 55 | 1017.3 |
| 20260901031014 | 82 | 154 | 1.0 | 3.0 | 0.00 | 0.00 | 0.00 | 55 | 1014.4 |
| 20260901030830 | 83 | 154 | 2.0 | 3.0 | 0.00 | 0.00 | 0.00 | 55 | 1017.3 |
| 20260901030506 | 82 | 154 | 1.0 | 5.0 | 0.00 | 0.00 | 0.00 | 55 | 1014.4 |
| 20260901030330 | 83 | 154 | 2.0 | 5.0 | 0.00 | 0.00 | 0.00 | 54 | 1017.2 |
| 20260901030100 | 82 | 154 | 2.0 | 5.0 | 0.00 | 0.00 | 0.00 | 54 | 1014.2 |
| 20260901025830 | 83 | 154 | 3.0 | 4.0 | 0.00 | 0.00 | 0.00 | 54 | 1017.0 |
| 20260901025554 | 83 | 154 | 1.0 | 2.0 | 0.00 | 0.00 | 0.00 | 54 | 1014.1 |
| 20260901025329 | 83 | 154 | 2.0 | 2.0 | 0.00 | 0.00 | 0.00 | 54 | 1017.0 |
| 20260901025046 | 83 | 154 | 1.0 | 2.0 | 0.00 | 0.00 | 0.00 | 53 | 1014.0 |
| 20260901024829 | 84 | 154 | 1.0 | 2.0 | 0.00 | 0.00 | 0.00 | 53 | 1017.0 |
| 20260901024536 | 83 | 154 | 0.0 | 1.0 | 0.00 | 0.00 | 0.00 | 53 | 1013.9 |
| 20260901024329 | 84 | 154 | 0.0 | 1.0 | 0.00 | 0.00 | 0.00 | 52 | 1016.8 |
| 20260901024030 | 84 | 154 | 0.0 | 2.0 | 0.00 | 0.00 | 0.00 | 52 | 1013.8 |
| 20260901023847 | 84 | 154 | 0.0 | 2.0 | 0.00 | 0.00 | 0.00 | 52 | 1016.8 |
| 20260901023556 | 84 | 154 | 0.0 | 2.0 | 0.00 | 0.00 | 0.00 | 52 | 1013.8 |
| 20260901023325 | 85 | 154 | 1.0 | 2.0 | 0.00 | 0.00 | 0.00 | 52 | 1016.7 |
| 20260901023059 | 84 | 154 | 1.0 | 2.0 | 0.00 | 0.00 | 0.00 | 51 | 1013.8 |
| 20260901022824 | 85 | 154 | 1.0 | 2.0 | 0.00 | 0.00 | 0.00 | 51 | 1016.8 |
| 20260901022538 | 85 | 154 | 0.0 | 2.0 | 0.00 | 0.00 | 0.00 | 51 | 1013.8 |
| 20260901022323 | 85 | 154 | 1.0 | 2.0 | 0.00 | 0.00 | 0.00 | 51 | 1016.7 |
| 20260901022032 | 85 | 154 | 1.0 | 3.0 | 0.00 | 0.00 | 0.00 | 51 | 1013.7 |
| 20260901021842 | 85 | 154 | 2.0 | 3.0 | 0.00 | 0.00 | 0.00 | 51 | 1016.7 |
| 20260901021556 | 85 | 154 | 1.0 | 3.0 | 0.00 | 0.00 | 0.00 | 50 | 1013.6 |
| 20260901021319 | 86 | 154 | 1.0 | 3.0 | 0.00 | 0.00 | 0.00 | 50 | 1016.5 |
| 20260901021047 | 85 | 153 | 1.0 | 2.0 | 0.00 | 0.00 | 0.00 | 50 | 1013.6 |
| 20260901020816 | 86 | 154 | 2.0 | 2.0 | 0.00 | 0.00 | 0.00 | 50 | 1016.5 |
| 20260901020514 | 86 | 154 | 1.0 | 2.0 | 0.00 | 0.00 | 0.00 | 49 | 1013.4 |
| 20260901020315 | 86 | 154 | 1.0 | 2.0 | 0.00 | 0.00 | 0.00 | 49 | 1016.5 |
| 20260901020004 | 86 | 154 | 0.0 | 2.0 | 0.00 | 0.00 | 0.00 | 49 | 1013.4 |
| 20260901015852 | 87 | 154 | 1.0 | 2.0 | 0.00 | 0.00 | 0.00 | 49 | 1016.4 |
| 20260901015536 | 86 | 154 | 1.0 | 2.0 | 0.00 | 0.00 | 0.00 | 49 | 1013.3 |
| 20260901015332 | 87 | 154 | 1.0 | 2.0 | 0.00 | 0.00 | 0.00 | 49 | 1016.4 |
| 20260901015029 | 86 | 154 | 1.0 | 2.0 | 0.00 | 0.00 | 0.00 | 49 | 1013.3 |
| 20260901014829 | 87 | 154 | 1.0 | 2.0 | 0.00 | 0.00 | 0.00 | 49 | 1016.4 |
| 20260901014557 | 87 | 154 | 0.0 | 2.0 | 0.00 | 0.00 | 0.00 | 48 | 1013.2 |
| 20260901014350 | 87 | 154 | 0.0 | 2.0 | 0.00 | 0.00 | 0.00 | 48 | 1016.3 |
| 20260901014014 | 87 | 154 | 1.0 | 2.0 | 0.00 | 0.00 | 0.00 | 48 | 1013.2 |
| 20260901013829 | 88 | 154 | 1.0 | 2.0 | 0.00 | 0.00 | 0.00 | 48 | 1016.2 |
| 20260901013506 | 87 | 154 | 0.0 | 0.0 | 0.00 | 0.00 | 0.00 | 47 | 1013.1 |
| 20260901013329 | 88 | 154 | 0.0 | 0.0 | 0.00 | 0.00 | 0.00 | 47 | 1016.1 |
| 20260901013058 | 88 | 154 | 0.0 | 0.0 | 0.00 | 0.00 | 0.00 | 47 | 1013.1 |
| 20260901012829 | 88 | 154 | 0.0 | 0.0 | 0.00 | 0.00 | 0.00 | 47 | 1016.1 |
| 20260901012551 | 88 | 154 | 0.0 | 0.0 | 0.00 | 0.00 | 0.00 | 47 | 1013.0 |
| 20260901012329 | 89 | 153 | 0.0 | 0.0 | 0.00 | 0.00 | 0.00 | 46 | 1016.1 |
| 20260901012040 | 88 | 154 | 0.0 | 0.0 | 0.00 | 0.00 | 0.00 | 46 | 1013.1 |
| 20260901011829 | 89 | 154 | 0.0 | 0.0 | 0.00 | 0.00 | 0.00 | 46 | 1016.1 |
| 20260901011530 | 89 | 154 | 0.0 | 0.0 | 0.00 | 0.00 | 0.00 | 46 | 1013.1 |
| 20260901011342 | 89 | 154 | 0.0 | 0.0 | 0.00 | 0.00 | 0.00 | 46 | 1016.1 |
| 20260901011056 | 89 | 154 | 0.0 | 0.0 | 0.00 | 0.00 | 0.00 | 45 | 1013.1 |
| 20260901010820 | 90 | 152 | 0.0 | 0.0 | 0.00 | 0.00 | 0.00 | 45 | 1016.0 |
| 20260901010548 | 89 | 147 | 0.0 | 0.0 | 0.00 | 0.00 | 0.00 | 45 | 1013.0 |
| 20260901010339 | 90 | 147 | 0.0 | 0.0 | 0.00 | 0.00 | 0.00 | 45 | 1016.0 |
| 20260901010036 | 90 | 145 | 0.0 | 0.0 | 0.00 | 0.00 | 0.00 | 45 | 1013.0 |
| 20260901005831 | 90 | 147 | 0.0 | 0.0 | 0.00 | 0.00 | 0.00 | 44 | 1016.0 |
| 20260901005534 | 90 | 154 | 0.0 | 0.0 | 0.00 | 0.00 | 0.00 | 44 | 1013.0 |
| 20260901005328 | 91 | 139 | 0.0 | 0.0 | 0.00 | 0.00 | 0.00 | 44 | 1016.0 |
| 20260901005030 | 90 | 147 | 0.0 | 0.0 | 0.00 | 0.00 | 0.00 | 44 | 1012.9 |
| 20260901004825 | 91 | 150 | 0.0 | 0.0 | 0.00 | 0.00 | 0.00 | 43 | 1015.9 |
| 20260901004526 | 91 | 156 | 0.0 | 0.0 | 0.00 | 0.00 | 0.00 | 43 | 1012.9 |
| 20260901004322 | 91 | 149 | 0.0 | 0.0 | 0.00 | 0.00 | 0.00 | 43 | 1015.8 |
| 20260901004007 | 91 | 139 | 0.0 | 0.0 | 0.00 | 0.00 | 0.00 | 42 | 1012.9 |
| 20260901003840 | 92 | 116 | 0.0 | 0.0 | 0.00 | 0.00 | 0.00 | 42 | 1015.9 |
| 20260901003556 | 91 | 144 | 0.0 | 0.0 | 0.00 | 0.00 | 0.00 | 42 | 1013.0 |
| 20260901003332 | 92 | 156 | 0.0 | 0.0 | 0.00 | 0.00 | 0.00 | 42 | 1015.9 |
| 20260901003049 | 91 | 158 | 0.0 | 0.0 | 0.00 | 0.00 | 0.00 | 41 | 1012.9 |
| 20260901002829 | 92 | 160 | 0.0 | 0.0 | 0.00 | 0.00 | 0.00 | 41 | 1015.9 |
| 20260901002543 | 92 | 147 | 0.0 | 0.0 | 0.00 | 0.00 | 0.00 | 41 | 1012.9 |
| 20260901002326 | 92 | 160 | 0.0 | 0.0 | 0.00 | 0.00 | 0.00 | 41 | 1015.8 |
| 20260901002032 | 92 | 158 | 0.0 | 0.0 | 0.00 | 0.00 | 0.00 | 40 | 1012.8 |
| 20260901001824 | 93 | 144 | 0.0 | 0.0 | 0.00 | 0.00 | 0.00 | 40 | 1015.8 |
| 20260901001524 | 92 | 139 | 0.0 | 0.0 | 0.00 | 0.00 | 0.00 | 40 | 1012.7 |
| 20260901001321 | 93 | 119 | 0.0 | 0.0 | 0.00 | 0.00 | 0.00 | 40 | 1015.7 |
| 20260901001007 | 92 | 149 | 0.0 | 14.0 | 0.00 | 0.00 | 0.00 | 40 | 1012.7 |
| 20260901000818 | 93 | 119 | 0.0 | 14.0 | 0.00 | 0.00 | 0.00 | 40 | 1015.7 |
| 20260901000557 | 93 | 168 | 6.0 | 14.0 | 0.00 | 0.00 | 0.00 | 40 | 1012.7 |
| 20260901000317 | 93 | 152 | 7.0 | 11.0 | 0.00 | 0.00 | 0.00 | 40 | 1015.6 |
| 20260901000048 | 93 | 154 | 5.0 | 11.0 | 0.00 | 0.00 | 0.00 | 41 | 1012.6 |
| 20260831235815 | 93 | 131 | 6.0 | 11.0 | 0.00 | 0.00 | 0.00 | 40 | 1015.5 |
| 20260831235538 | 93 | 143 | 6.0 | 15.0 | 0.00 | 0.00 | 0.00 | 39 | 1012.6 |
| 20260831235332 | 94 | 135 | 8.0 | 15.0 | 0.00 | 0.00 | 0.00 | 39 | 1015.5 |
| 20260831235032 | 93 | 141 | 6.0 | 15.0 | 0.00 | 0.00 | 0.00 | 38 | 1012.5 |
| 20260831234830 | 94 | 137 | 10.0 | 15.0 | 0.00 | 0.00 | 0.00 | 38 | 1015.6 |
| 20260831234512 | 93 | 145 | 8.0 | 15.0 | 0.00 | 0.00 | 0.00 | 39 | 1012.6 |
| 20260831234349 | 94 | 129 | 10.0 | 15.0 | 0.00 | 0.00 | 0.00 | 38 | 1015.6 |
| 20260831234044 | 93 | 156 | 6.0 | 13.0 | 0.00 | 0.00 | 0.00 | 38 | 1012.6 |
| 20260831233825 | 94 | 146 | 8.0 | 12.0 | 0.00 | 0.00 | 0.00 | 38 | 1015.6 |
| 20260831233535 | 94 | 135 | 6.0 | 12.0 | 0.00 | 0.00 | 0.00 | 38 | 1012.7 |
| 20260831233322 | 94 | 141 | 7.0 | 12.0 | 0.00 | 0.00 | 0.00 | 38 | 1015.6 |
| 20260831233026 | 94 | 139 | 7.0 | 12.0 | 0.00 | 0.00 | 0.00 | 37 | 1012.6 |
| 20260831232820 | 94 | 153 | 6.0 | 12.0 | 0.00 | 0.00 | 0.00 | 37 | 1015.6 |
| 20260831232508 | 94 | 145 | 6.0 | 12.0 | 0.00 | 0.00 | 0.00 | 36 | 1012.6 |
| 20260831232317 | 94 | 136 | 6.0 | 12.0 | 0.00 | 0.00 | 0.00 | 37 | 1015.7 |
| 20260831232102 | 94 | 39 | 8.0 | 12.0 | 0.00 | 0.00 | 0.00 | 37 | 1012.7 |
| 20260831231814 | 94 | 136 | 5.0 | 12.0 | 0.00 | 0.00 | 0.00 | 37 | 1015.7 |
| 20260831231555 | 94 | 98 | 4.0 | 12.0 | 0.00 | 0.00 | 0.00 | 37 | 1012.7 |
| 20260831231331 | 94 | 166 | 7.0 | 12.0 | 0.00 | 0.00 | 0.00 | 37 | 1015.7 |
| 20260831231044 | 94 | 159 | 0.0 | 7.0 | 0.00 | 0.00 | 0.00 | 37 | 1012.7 |
| 20260831230829 | 95 | 142 | 0.0 | 7.0 | 0.00 | 0.00 | 0.00 | 38 | 1015.7 |
| 20260831230533 | 94 | 122 | 0.0 | 11.0 | 0.00 | 0.00 | 0.00 | 38 | 1012.6 |
| 20260831230325 | 95 | 125 | 4.0 | 12.0 | 0.00 | 0.00 | 0.00 | 37 | 1015.6 |
| 20260831230024 | 94 | 130 | 6.0 | 12.0 | 0.00 | 0.00 | 0.00 | 37 | 1012.7 |
| 20260831225820 | 95 | 94 | 6.0 | 12.0 | 0.00 | 0.00 | 0.00 | 37 | 1015.7 |
| 20260831225547 | 94 | 103 | 4.0 | 13.0 | 0.00 | 0.00 | 0.00 | 37 | 1012.7 |
| 20260831225318 | 95 | 137 | 6.0 | 13.0 | 0.00 | 0.00 | 0.00 | 37 | 1015.7 |
| 20260831225018 | 94 | 141 | 7.0 | 13.0 | 0.00 | 0.00 | 0.00 | 36 | 1012.8 |
| 20260831224815 | 95 | 132 | 6.0 | 12.0 | 0.00 | 0.00 | 0.00 | 36 | 1015.8 |
| 20260831224602 | 94 | 112 | 2.0 | 9.0 | 0.00 | 0.00 | 0.00 | 36 | 1012.8 |
| 20260831224354 | 95 | 145 | 0.0 | 0.0 | 0.00 | 0.00 | 0.00 | 36 | 1015.8 |
| 20260831224032 | 94 | 104 | 0.0 | 0.0 | 0.00 | 0.00 | 0.00 | 36 | 1012.9 |
| 20260831223830 | 95 | 152 | 0.0 | 0.0 | 0.00 | 0.00 | 0.00 | 35 | 1015.8 |
| 20260831223514 | 94 | 122 | 0.0 | 0.0 | 0.00 | 0.00 | 0.00 | 36 | 1012.8 |
| 20260831223328 | 95 | 140 | 0.0 | 0.0 | 0.00 | 0.00 | 0.00 | 36 | 1015.8 |
| 20260831223004 | 94 | 106 | 0.0 | 0.0 | 0.00 | 0.00 | 0.00 | 36 | 1012.9 |
| 20260831222825 | 94 | 158 | 0.0 | 0.0 | 0.00 | 0.00 | 0.00 | 36 | 1015.9 |
| 20260831222558 | 94 | 164 | 0.0 | 0.0 | 0.00 | 0.00 | 0.00 | 36 | 1012.8 |